Location: Mentone
(34.5413°N, 85.5351°W)
Time: 16:19:02
(UTC-05:00)

Cosmos 2026 Rocket - Visible Passes

Search period start: 29 April 2017 00:00
Search period end: 09 May 2017 00:00
Orbit: 940 x 1001 km, 82.9° (Epoch: 28 April)

Date Brightness Start Highest point End Pass type
(mag) Time Alt. Az. Time Alt. Az. Time Alt. Az.
29 Apr 4.2 19:52:53 10° N 19:58:54 52° E 20:04:49 10° SSE visible
29 Apr 6.4 21:39:34 10° NW 21:43:36 18° W 21:47:36 10° SW visible
30 Apr 4.0 20:16:39 10° N 20:22:51 84° W 20:28:56 10° S visible
01 May 5.0 20:40:50 10° NNW 20:46:38 45° W 20:52:21 10° SSW visible
02 May 6.1 21:05:31 10° NW 21:10:17 24° W 21:14:59 10° SW visible
03 May 6.7 21:31:34 10° WNW 21:33:45 12° W 21:35:56 10° WSW visible
04 May 4.6 20:07:12 10° NNW 20:13:12 59° W 20:19:08 10° S visible
05 May 5.8 20:31:38 10° NNW 20:36:55 31° W 20:42:07 10° SSW visible
06 May 6.6 20:56:52 10° NW 21:00:27 16° W 21:04:01 10° WSW visible
08 May 5.4 19:57:52 10° NNW 20:03:31 40° W 20:09:06 10° SSW visible
